|
|
Asteroid 2012 BD77
(Preview)
Orbital elements:
2012 BD77 Earth MOID = 0.3791 AU
Epoch 2012 Mar. 14.0 TT = JDT 2456000.5 MPC
M 339.95415 (2000.0) P Q
n 0.47166953 Peri. 66.37110 -0.85509360 +0.28487244
a 1.6344721 Node 127.13679 -0.33087392 -0.94310027
e 0.2467108 Incl. 32.91573 +0.39917087 -0.17149217
P 2.09 H 21.6...
|
Blobrana
|
0
|
|
|
|
|
Asteroid 2012 BB77
(Preview)
Orbital elements:
2012 BB77 Earth MOID = 0.1255 AU
Epoch 2012 Mar. 14.0 TT = JDT 2456000.5 MPC
M 39.10933 (2000.0) P Q
n 0.30423610 Peri. 232.50246 +0.84458789 -0.51823549
a 2.1894190 Node 157.71079 +0.52984465 +0.84513821
e 0.6845461 Incl. 20.77783 -0.07704510 +0.13104726
P 3.24 H 18.9...
|
Blobrana
|
0
|
|
|
|
|
Asteroid 2012 BY76
(Preview)
Orbital elements:
2012 BY76 Earth MOID = 0.0492 AU
Epoch 2012 Mar. 14.0 TT = JDT 2456000.5 MPC
M 64.55226 (2000.0) P Q
n 0.58200475 Peri. 272.10172 +0.59132080 -0.80498769
a 1.4207523 Node 141.51400 +0.76732115 +0.54319545
e 0.3654954 Incl. 4.45291 +0.24810877 +0.23860747
P 1.69 H 25.6 G...
|
Blobrana
|
0
|
|
|
|
|
Asteroid 2012 BF77
(Preview)
Orbital elements:
2012 BF77 Earth MOID = 0.0217 AU
Epoch 2012 Mar. 14.0 TT = JDT 2456000.5 MPC
M 26.78632 (2000.0) P Q
n 0.51741539 Peri. 7.23066 -0.49752946 -0.86354622
a 1.5366554 Node 112.63650 +0.79134330 -0.49063941
e 0.3467549 Incl. 5.10788 +0.35530300 -0.11645124
P 1.90 H 24.6 G 0....
|
Blobrana
|
0
|
|
|
|
|
Asteroid 2012 BA77
(Preview)
Orbital elements:
2012 BA77 Earth MOID = 0.0001 AU
Epoch 2012 Mar. 14.0 TT = JDT 2456000.5 MPC
M 24.81521 (2000.0) P Q
n 0.26542991 Peri. 228.51034 +0.42434757 -0.90548024
a 2.3979280 Node 196.38320 +0.83687565 +0.39466305
e 0.6380086 Incl. 1.19615 +0.34578647 +0.15603401
P 3.71 H 25.9 G...
|
Blobrana
|
0
|
|
|
|
|
Asteroid 2012 BZ76
(Preview)
Orbital elements:
2012 BZ76 Earth MOID = 0.1049 AU
Epoch 2012 Mar. 14.0 TT = JDT 2456000.5 MPC
M 337.70674 (2000.0) P Q
n 0.25216843 Peri. 9.45743 -0.34026610 +0.93346372
a 2.4812789 Node 240.72361 -0.87101130 -0.35833425
e 0.6929722 Incl. 7.47134 -0.35434206 -0.01555806
P 3.91 H 18.8 G 0...
|
Blobrana
|
0
|
|
|
|
|
Asteroid 2012 BB62
(Preview)
Orbital elements:
2012 BB62 Earth MOID = 0.0364 AU
Epoch 2012 Mar. 14.0 TT = JDT 2456000.5 MPC
M 31.62338 (2000.0) P Q
n 0.35867342 Peri. 126.92577 +0.25610909 -0.96155799
a 1.9618686 Node 307.93871 +0.84214003 +0.27226019
e 0.5277140 Incl. 7.21619 +0.47456117 +0.03578576
P 2.75 H 26.0 G...
|
Blobrana
|
0
|
|
|
|
|
Asteroid 2012 BZ61
(Preview)
Orbital elements:
2012 BZ61 Earth MOID = 0.0998 AU
Epoch 2012 Mar. 14.0 TT = JDT 2456000.5 MPC
M 22.34998 (2000.0) P Q
n 0.32852681 Peri. 158.85867 -0.24433704 -0.95174137
a 2.0801222 Node 304.83087 +0.85405992 -0.12052237
e 0.4863350 Incl. 13.07592 +0.45921788 -0.28224584
P 3.00 H 26.0...
|
Blobrana
|
0
|
|
|
|
|
Asteroid 2012 BY61
(Preview)
Orbital elements:
2012 BY61 Earth MOID = 0.0657 AU
Epoch 2012 Mar. 14.0 TT = JDT 2456000.5 MPC
M 22.82730 (2000.0) P Q
n 0.45154748 Peri. 357.07486 -0.53442772 -0.77503896
a 1.6826757 Node 124.97945 +0.78358326 -0.60387106
e 0.3763146 Incl. 24.30148 +0.31683480 +0.18615678
P 2.18 H 26.4...
|
Blobrana
|
1
|
|
|
|
|
Asteroid 2012 BC62
(Preview)
Orbital elements:
2012 BC62 Earth MOID = 0.0409 AU
Epoch 2012 Mar. 14.0 TT = JDT 2456000.5 MPC
M 7.62185 (2000.0) P Q
n 0.52379060 Peri. 218.23279 -0.94829701 -0.27298714
a 1.5241613 Node 305.16617 +0.31735897 -0.80913801
e 0.3575641 Incl. 11.42256 +0.00400817 -0.52035920
P 1.88 H 26.6 G...
|
Blobrana
|
0
|
|
|
|
|
Asteroid 2012 BA62
(Preview)
Orbital elements:
2012 BA62 Earth MOID = 0.0405 AU
Epoch 2012 Mar. 14.0 TT = JDT 2456000.5 MPC
M 332.98259 (2000.0) P Q
n 0.90299007 Peri. 262.99387 -0.85352358 +0.48198743
a 1.0601014 Node 305.62640 -0.32735603 -0.79159945
e 0.1159919 Incl. 14.09530 -0.40538318 -0.37557745
P 1.09 H 26....
|
Blobrana
|
1
|
|
|
|
|
Asteroid 2012 BV61
(Preview)
Orbital elements:
2012 BV61 Earth MOID = 0.0114 AU
Epoch 2012 Mar. 14.0 TT = JDT 2456000.5 MPC
M 32.69555 (2000.0) P Q
n 0.51812768 Peri. 58.82673 -0.32386336 -0.94606488
a 1.5352468 Node 50.07249 +0.86417715 -0.29950168
e 0.3556047 Incl. 0.64170 +0.38511087 -0.12353128
P 1.90 H 25.3 G 0....
|
Blobrana
|
0
|
|
|
|
|
Asteroid 2012 BT61
(Preview)
Orbital elements:
2012 BT61 Earth MOID = 0.2898 AU
Epoch 2012 Mar. 14.0 TT = JDT 2456000.5 MPC
M 56.31035 (2000.0) P Q
n 0.25561791 Peri. 144.49027 +0.86486852 -0.47769436
a 2.4589056 Node 244.75100 +0.41209408 +0.85113906
e 0.4857797 Incl. 9.82305 +0.28667214 +0.21764741
P 3.86 H 19.7 G...
|
Blobrana
|
0
|
|
|
|
|
Asteroid 2012 BW61
(Preview)
Orbital elements:
2012 BW61 Earth MOID = 0.0399 AU
Epoch 2012 Mar. 14.0 TT = JDT 2456000.5 MPC
M 358.86971 (2000.0) P Q
n 0.38848102 Peri. 249.69505 -0.93245800 +0.30125507
a 1.8601852 Node 307.30900 -0.15811581 -0.83660149
e 0.5619134 Incl. 14.52016 -0.32484068 -0.45754053
P 2.54 H 25....
|
Blobrana
|
0
|
|
|
|
|
Asteroid 2012 BZ34
(Preview)
Orbital elements:
2012 BZ34 Earth MOID = 0.2699 AU
Epoch 2012 Mar. 14.0 TT = JDT 2456000.5 MPC
M 52.56513 (2000.0) P Q
n 0.43960191 Peri. 291.61918 +0.40720578 -0.82698971
a 1.7130222 Node 128.22743 +0.90707683 +0.41578775
e 0.3682031 Incl. 29.56874 -0.10674771 +0.37842907
P 2.24 H 22.5...
|
Blobrana
|
0
|
|
|